Total_Precipitation_Accumulation
0.14 0.14 0.15 0.13 0.12 0.12 0.13 0.17 0.20 0.15 0.07 0.07 0.11 0.12 0.12 0.15 0.19 0.19 0.16 0.16 0.17 0.15 0.17 0.27 0.37 0.47 0.56 0.67 0.83 0.99 1.06 1.08 0.97 0.82 0.66 0.49 0.40 0.37
0.21 0.21 0.20 0.19 0.18 0.16 0.15 0.15 0.17 0.19 0.12 0.05 0.09 0.14 0.17 0.19 0.21 0.22 0.20 0.18 0.16 0.16 0.15 0.19 0.28 0.37 0.48 0.59 0.64 0.72 0.82 0.88 0.92 0.94 0.91 0.79 0.60 0.49
0.26 0.27 0.27 0.26 0.25 0.23 0.21 0.19 0.18 0.21 0.17 0.06 0.05 0.10 0.18 0.23 0.24 0.22 0.21 0.17 0.12 0.13 0.16 0.18 0.24 0.31 0.38 0.48 0.57 0.64 0.71 0.74 0.74 0.84 0.98 0.97 0.83 0.65
0.30 0.32 0.32 0.31 0.30 0.30 0.29 0.27 0.24 0.22 0.21 0.14 0.07 0.08 0.14 0.21 0.25 0.25 0.20 0.16 0.11 0.11 0.14 0.18 0.22 0.28 0.33 0.39 0.45 0.53 0.64 0.74 0.73 0.67 0.73 0.84 0.86 0.80
0.26 0.29 0.31 0.35 0.36 0.35 0.34 0.33 0.30 0.24 0.21 0.18 0.12 0.10 0.13 0.18 0.23 0.25 0.23 0.20 0.15 0.13 0.13 0.17 0.22 0.26 0.30 0.35 0.39 0.41 0.45 0.52 0.65 0.76 0.79 0.78 0.76 0.74
0.25 0.27 0.29 0.33 0.36 0.39 0.42 0.40 0.35 0.31 0.28 0.22 0.17 0.15 0.15 0.18 0.24 0.27 0.27 0.25 0.22 0.18 0.16 0.16 0.19 0.23 0.24 0.26 0.29 0.34 0.40 0.50 0.61 0.74 0.81 0.78 0.69 0.62
0.29 0.30 0.31 0.37 0.43 0.45 0.50 0.49 0.42 0.36 0.33 0.30 0.26 0.21 0.20 0.23 0.28 0.30 0.32 0.28 0.25 0.24 0.22 0.17 0.16 0.16 0.18 0.23 0.28 0.30 0.38 0.45 0.49 0.56 0.67 0.75 0.72 0.64
0.31 0.28 0.28 0.31 0.36 0.43 0.51 0.47 0.45 0.43 0.41 0.38 0.37 0.35 0.30 0.29 0.33 0.39 0.42 0.37 0.30 0.22 0.15 0.16 0.19 0.20 0.16 0.17 0.26 0.30 0.32 0.36 0.42 0.48 0.52 0.58 0.65 0.66
0.21 0.18 0.18 0.21 0.23 0.22 0.26 0.26 0.28 0.36 0.45 0.48 0.52 0.52 0.45 0.39 0.40 0.46 0.51 0.47 0.37 0.30 0.20 0.21 0.21 0.21 0.21 0.24 0.30 0.30 0.32 0.35 0.36 0.37 0.42 0.48 0.53 0.59
0.13 0.13 0.16 0.18 0.18 0.16 0.15 0.17 0.20 0.26 0.39 0.48 0.57 0.60 0.58 0.52 0.49 0.55 0.64 0.66 0.56 0.47 0.34 0.31 0.31 0.29 0.26 0.28 0.33 0.33 0.30 0.30 0.32 0.34 0.34 0.36 0.41 0.49
0.14 0.19 0.23 0.21 0.19 0.11 0.10 0.15 0.18 0.21 0.27 0.38 0.48 0.50 0.51 0.57 0.60 0.61 0.66 0.73 0.80 0.77 0.62 0.49 0.42 0.38 0.35 0.33 0.35 0.38 0.38 0.34 0.32 0.33 0.34 0.34 0.33 0.37
0.12 0.20 0.37 0.32 0.19 0.07 0.05 0.09 0.13 0.17 0.17 0.18 0.22 0.26 0.30 0.36 0.47 0.63 0.71 0.71 0.79 0.88 0.80 0.64 0.54 0.43 0.46 0.42 0.32 0.28 0.33 0.40 0.40 0.38 0.39 0.39 0.38 0.36
0.12 0.23 0.40 0.31 0.16 0.08 0.04 0.06 0.11 0.10 0.10 0.11 0.13 0.17 0.21 0.29 0.40 0.53 0.65 0.68 0.69 0.76 0.73 0.65 0.60 0.46 0.39 0.39 0.33 0.25 0.21 0.25 0.31 0.38 0.42 0.46 0.48 0.49
0.16 0.21 0.29 0.21 0.12 0.06 0.03 0.03 0.03 0.02 0.03 0.05 0.06 0.09 0.14 0.23 0.34 0.44 0.54 0.61 0.65 0.68 0.62 0.52 0.50 0.41 0.30 0.25 0.26 0.25 0.21 0.21 0.22 0.28 0.34 0.46 0.51 0.52
0.21 0.33 0.23 0.11 0.06 0.03 0.01 0.00 0.00 0.00 0.01 0.02 0.03 0.05 0.09 0.14 0.21 0.29 0.38 0.46 0.50 0.54 0.53 0.46 0.41 0.37 0.30 0.23 0.17 0.17 0.18 0.20 0.20 0.23 0.28 0.36 0.43 0.48
0.09 0.18 0.15 0.05 0.01 0.00 0.00 0.00 0.00 0.00 0.01 0.01 0.02 0.03 0.03 0.06 0.10 0.18 0.26 0.34 0.41 0.47 0.49 0.48 0.45 0.41 0.36 0.28 0.20 0.17 0.15 0.16 0.17 0.20 0.23 0.27 0.33 0.38
0.08 0.07 0.05 0.02 0.01 0.00 0.00 0.00 0.00 0.00 0.00 0.01 0.01 0.02 0.03 0.04 0.06 0.11 0.19 0.26 0.34 0.41 0.46 0.50 0.51 0.48 0.44 0.38 0.33 0.27 0.20 0.18 0.16 0.18 0.21 0.24 0.29 0.32
0.07 0.05 0.04 0.03 0.01 0.01 0.00 0.00 0.00 0.00 0.00 0.01 0.01 0.02 0.03 0.04 0.05 0.07 0.13 0.20 0.26 0.31 0.34 0.40 0.46 0.50 0.54 0.55 0.43 0.30 0.22 0.21 0.21 0.22 0.24 0.26 0.26 0.24
0.03 0.02 0.02 0.01 0.01 0.00 0.00 0.00 0.00 0.00 0.00 0.01 0.01 0.01 0.03 0.04 0.05 0.06 0.09 0.16 0.23 0.26 0.28 0.29 0.35 0.44 0.48 0.50 0.47 0.31 0.21 0.17 0.18 0.23 0.27 0.26 0.24 0.18
0.01 0.01 0.00 0.00 0.00 0.00 0.00 0.00 0.00 0.00 0.00 0.01 0.01 0.01 0.02 0.04 0.06 0.06 0.09 0.15 0.22 0.26 0.27 0.29 0.32 0.35 0.39 0.33 0.28 0.25 0.19 0.17 0.17 0.20 0.23 0.23 0.25 0.27
0.00 0.00 0.00 0.00 0.00 0.00 0.00 0.00 0.00 0.00 0.00 0.01 0.01 0.01 0.02 0.04 0.05 0.05 0.08 0.13 0.21 0.27 0.28 0.27 0.30 0.33 0.34 0.34 0.35 0.33 0.27 0.22 0.19 0.18 0.18 0.19 0.23 0.28
0.00 0.00 0.00 0.00 0.00 0.00 0.00 0.00 0.00 0.00 0.00 0.01 0.01 0.01 0.02 0.04 0.05 0.06 0.08 0.13 0.17 0.22 0.26 0.28 0.29 0.32 0.40 0.48 0.46 0.39 0.36 0.31 0.30 0.30 0.27 0.18 0.16 0.17
0.00 0.00 0.00 0.00 0.00 0.00 0.00 0.00 0.00 0.00 0.01 0.01 0.02 0.02 0.03 0.05 0.06 0.08 0.10 0.12 0.15 0.17 0.20 0.25 0.30 0.34 0.40 0.42 0.40 0.39 0.34 0.27 0.25 0.26 0.29 0.26 0.17 0.12